RH
43 47 50 50 48 48 53 54 54 57 58 57 55 55 54 49 46 45 47 48 48 46 42 40 42 45 48 47 35 15 7 7 8 10 17 19 30 29 24 24 23 24 24
51 49 49 52 50 48 51 55 51 56 58 58 59 58 56 56 55 51 52 53 52 52 51 47 42 43 46 48 50 49 36 17 8 6 7 8 9 11 14 16 18 17 22
24 23 30 43 53 50 50 57 61 59 56 56 59 64 63 59 60 62 61 57 56 57 56 55 52 46 45 48 50 54 55 50 37 16 8 6 7 8 8 9 10 14 14
18 20 36 43 42 37 30 31 36 32 31 32 37 46 47 46 56 64 56 50 52 56 57 59 59 58 56 50 47 48 53 59 57 49 28 12 8 8 8 9 17 14 15
16 16 17 18 16 16 15 14 14 14 14 15 15 16 20 26 39 58 55 53 50 52 54 57 58 58 58 60 59 55 50 50 56 63 56 38 21 11 10 14 18 26 23
18 18 17 16 15 15 14 13 12 12 12 12 12 12 13 14 15 17 22 33 44 53 57 54 57 55 53 55 58 59 61 56 52 52 60 65 51 31 17 88 56 20 18
17 15 14 13 13 12 12 12 11 12 12 12 13 14 16 16 16 16 17 17 18 19 31 40 43 48 53 55 50 52 54 58 58 54 52 54 67 66 52 56 85 20 17
16 13 12 12 12 12 12 11 12 12 13 14 15 14 12 8 6 5 6 7 9 10 13 16 24 32 34 48 61 58 54 55 59 60 58 56 55 57 68 67 66 82 24
13 12 11 11 12 12 13 13 12 12 14 15 13 9 5 4 4 4 4 4 4 4 5 5 5 6 7 13 28 45 51 60 63 62 63 64 61 56 57 60 66 69 62
14 12 12 12 12 14 13 12 13 14 14 9 5 4 4 4 4 5 5 6 6 6 6 6 6 6 6 6 6 8 19 24 32 53 66 64 68 68 63 59 62 65 67
14 12 12 13 14 12 12 14 15 11 6 4 4 5 5 6 6 6 6 6 7 7 8 8 8 9 9 9 9 8 7 7 13 23 35 55 61 68 71 74 67 65 65
14 13 14 15 13 13 14 13 9 6 5 5 5 6 6 6 6 6 7 8 9 11 13 14 14 14 14 14 14 13 12 11 9 8 12 26 37 47 64 69 70 74 68
14 14 14 13 13 14 13 11 7 5 5 5 5 5 6 6 6 7 9 10 13 14 14 12 11 10 11 11 12 12 14 15 15 14 12 11 14 19 30 53 73 76 77
14 14 14 14 14 14 14 11 7 5 5 5 5 5 6 7 8 11 14 15 13 10 9 9 9 9 8 7 7 8 11 13 13 12 14 14 16 27 43 43 51 73 79
15 15 14 15 15 16 14 11 8 6 5 5 5 6 7 10 13 15 14 11 8 8 8 7 6 5 4 4 4 4 4 4 7 12 16 15 15 18 46 47 56 59 68
16 15 15 15 16 15 13 10 8 6 6 6 6 8 11 14 16 12 10 12 12 10 8 6 5 4 4 4 4 4 4 4 5 7 10 16 19 17 17 32 54 68 73
16 15 15 16 15 14 12 10 8 7 6 6 8 11 15 16 11 10 13 16 13 8 5 4 4 3 3 3 3 3 3 4 4 6 9 13 16 20 22 18 21 46 72
16 16 16 16 15 14 12 10 7 6 6 8 11 17 16 12 10 14 16 10 6 5 4 3 2 2 2 3 3 4 4 5 6 9 12 14 17 20 23 26 25 20 26
16 16 16 15 14 14 12 9 6 6 8 13 18 18 12 10 14 16 13 8 5 3 2 2 3 3 4 4 4 6 7 11 16 18 19 18 20 23 26 27 29 31 28
16 16 16 15 14 11 8 7 8 11 16 19 18 12 13 18 19 16 9 4 3 3 3 4 4 3 4 4 6 6 10 16 23 24 24 23 22 22 25 31 34 34 33
16 17 16 14 11 8 8 10 15 19 19 17 12 18 22 22 15 6 4 3 3 4 4 4 5 5 4 4 5 8 11 15 18 22 27 29 30 29 28 28 32 39 39
17 16 14 10 8 9 15 19 18 15 12 16 23 25 21 10 5 4 3 4 5 6 6 6 5 5 5 4 4 4 7 8 9 9 10 11 13 21 28 34 34 34 32
15 13 9 10 14 18 14 11 13 18 22 24 23 15 7 6 5 4 5 6 7 7 7 6 6 6 6 6 5 5 5 5 6 7 8 9 12 14 16 23 29 31 34
10 9 15 20 17 13 15 20 22 21 18 13 9 7 6 5 4 4 5 6 8 9 10 8 7 7 7 7 7 8 7 7 6 5 6 8 9 9 12 18 25 32 37
16 22 20 14 17 20 19 13 9 7 7 7 7 7 6 6 6 6 7 7 7 8 9 10 10 9 10 10 10 10 11 11 10 7 6 8 9 9 9 10 15 23 34
14 12 13 21 21 12 10 9 8 8 8 9 9 10 10 10 10 11 12 12 10 9 9 10 11 12 13 13 12 11 12 12 13 13 10 10 10 11 10 10 10 10 11
Wind_Speed
8 6 5 5 4 3 2 1 1 1 2 3 4 5 6 7 8 8 9 10 10 11 11 11 12 12 12 11 12 11 9 7 7 8 8 8 7 7 6 7 7 7 7
9 8 8 7 5 4 2 2 1 1 3 4 4 4 5 6 6 7 8 8 9 9 9 9 9 9 10 10 10 10 10 10 10 11 9 8 7 8 9 9 8 8 8
7 6 7 7 6 4 4 3 3 4 5 6 7 7 8 8 8 8 8 9 10 9 9 8 8 9 9 9 9 9 9 9 9 10 11 10 8 8 8 9 10 10 9
6 6 7 7 6 5 4 3 4 6 7 8 9 10 10 10 9 10 11 11 11 11 11 10 10 9 10 9 9 10 9 9 9 9 9 9 10 10 10 10 9 10 11
5 5 5 4 3 1 1 2 4 6 7 9 10 12 12 13 13 12 13 14 13 13 13 13 13 13 13 13 12 12 12 11 10 10 9 9 9 9 9 10 9 8 10
4 5 5 4 2 2 3 5 6 7 8 9 10 11 12 14 15 16 16 17 17 16 16 16 16 17 17 16 16 15 15 15 13 11 10 10 11 10 9 8 13 11 12
6 5 5 3 3 4 5 6 7 8 9 10 11 12 13 14 15 16 17 17 18 18 18 18 19 19 19 19 19 19 18 18 17 15 14 12 11 11 11 8 13 12 12
5 6 5 4 5 5 6 7 9 10 11 12 14 15 16 16 16 16 17 18 18 19 19 20 19 20 20 22 22 21 21 20 20 19 18 16 14 13 12 11 12 14 13
6 6 5 5 6 7 8 10 11 12 13 15 15 16 15 15 15 15 16 17 17 18 19 20 20 21 21 21 22 23 25 24 22 22 22 21 19 17 16 14 14 15 16
8 7 6 6 7 9 11 12 13 15 16 16 15 15 15 15 16 17 18 18 20 20 21 22 23 23 23 24 24 23 24 25 26 25 25 25 24 22 20 19 18 18 19
8 8 7 8 9 10 12 13 15 16 16 15 15 15 16 17 19 20 21 22 23 24 25 26 27 26 27 27 27 27 27 26 26 28 27 28 28 26 25 23 22 22 22
9 9 9 9 10 11 13 14 16 16 16 16 17 18 19 20 21 23 25 26 27 28 28 29 29 30 30 30 30 31 30 30 30 29 29 30 32 29 28 28 27 27 25
11 10 10 11 12 13 15 16 16 16 17 18 19 20 21 23 25 26 28 29 30 30 29 28 28 28 28 30 31 32 32 33 33 33 32 31 32 32 31 31 29 29 29
11 10 11 12 13 15 17 17 18 18 19 20 21 22 23 25 28 30 31 30 29 27 27 27 27 27 28 28 29 29 31 32 33 34 34 35 34 32 31 32 33 33 31
11 11 12 13 14 16 18 18 18 19 20 21 22 24 26 28 30 30 29 28 27 27 27 27 28 28 29 30 30 30 30 32 34 35 34 35 36 36 34 33 32 36 37
12 12 13 15 16 18 19 19 19 20 22 23 24 25 28 29 29 28 27 27 28 29 29 30 30 31 32 33 33 33 32 32 32 34 36 36 37 38 40 38 35 36 37
13 14 15 17 18 20 20 20 21 22 23 24 26 28 29 29 28 28 27 28 29 30 31 33 35 37 36 33 32 30 30 30 31 32 33 35 37 39 40 41 42 41 41
15 16 17 19 21 22 23 23 23 24 25 26 28 29 28 28 28 28 28 29 30 32 35 35 34 32 29 27 25 24 24 24 25 26 28 30 32 35 38 40 41 42 44
17 18 19 21 23 23 24 24 24 25 27 28 29 28 27 28 29 29 30 32 33 34 33 30 28 25 22 22 21 22 22 20 20 21 23 25 27 29 32 35 38 40 42
18 20 21 23 24 24 24 24 26 28 29 28 26 26 27 28 29 31 33 34 33 29 27 25 23 23 19 17 19 21 22 20 20 20 21 23 25 25 26 29 32 35 37
20 22 23 24 24 24 25 27 29 28 26 25 25 26 28 30 32 33 33 32 29 25 23 21 19 20 21 20 17 22 22 21 20 21 22 23 24 25 25 25 26 29 33
22 23 24 24 25 26 28 28 26 24 23 24 26 27 30 32 32 31 29 27 24 23 24 23 22 20 21 21 19 17 20 21 20 21 22 24 25 25 24 25 26 26 25
22 24 24 24 25 26 23 22 21 22 24 25 27 29 29 30 31 29 27 26 23 22 22 23 24 23 24 22 21 20 20 20 21 23 24 23 24 25 25 25 26 27 28
25 26 24 24 21 20 20 20 21 23 25 26 26 27 27 27 29 27 26 25 24 23 23 24 25 25 25 24 23 22 20 19 19 18 23 25 25 26 27 26 26 26 27
24 23 21 18 17 17 20 23 25 25 26 26 25 25 25 26 27 27 26 26 26 25 25 25 26 26 26 26 25 23 23 22 20 19 16 19 23 24 25 27 26 27 27
18 17 15 15 15 18 22 24 25 24 24 24 24 24 25 26 27 28 28 28 28 27 27 27 27 27 26 25 24 24 23 22 21 19 19 21 22 22 23 24 25 26 28
Wind_Direction
195 205 201 172 162 167 149 88 60 32 12 3 2 5 7 8 12 12 15 14 16 17 17 17 16 18 21 22 22 18 12 356 330 316 312 316 303 280 272 275 271 267 266
194 211 220 201 201 212 219 215 244 271 299 309 314 323 331 335 341 348 351 354 357 359 3 6 5 6 5 6 9 9 7 1 348 343 340 332 310 295 289 290 284 271 265
182 196 206 195 204 220 225 242 276 288 292 299 305 309 312 318 319 322 326 329 331 333 335 339 344 346 346 347 349 350 352 352 353 347 343 339 326 308 297 289 286 281 270
159 166 177 186 201 221 240 255 272 282 286 290 291 293 298 302 303 305 310 312 312 313 315 315 317 321 323 325 326 328 328 331 335 339 339 336 331 325 315 300 285 275 274
147 149 166 163 166 179 281 300 296 300 305 310 310 309 309 307 306 307 309 306 302 301 301 302 303 307 308 310 312 314 313 313 316 320 323 324 323 323 317 304 300 295 277
157 169 175 175 202 247 279 290 299 304 309 311 311 310 309 309 310 309 306 303 306 303 298 295 294 296 297 298 299 298 299 300 302 303 304 310 313 314 318 275 289 299 293
182 191 195 204 238 269 287 299 308 318 315 312 310 310 308 307 303 300 297 296 297 297 295 293 292 291 291 290 289 291 290 289 289 290 290 289 291 299 307 310 289 301 294
204 206 212 235 266 288 303 312 310 311 311 313 312 311 309 307 305 303 304 303 302 300 296 294 289 288 289 287 286 285 284 283 282 284 282 281 279 278 282 289 284 284 295
207 218 237 260 285 298 307 307 310 312 313 312 309 308 309 310 310 309 308 306 304 302 301 299 297 294 291 288 284 284 282 280 279 279 279 280 278 276 273 273 272 277 282
219 235 256 280 291 304 307 312 313 312 311 310 311 312 311 309 308 306 304 302 300 299 298 296 295 293 291 289 288 283 281 281 279 274 275 275 274 274 274 272 270 269 271
228 247 266 278 296 300 306 310 311 311 310 311 310 310 308 308 307 306 306 305 303 301 298 295 293 289 287 286 284 283 283 281 278 275 272 271 272 275 276 273 270 266 266
239 256 269 285 293 301 307 310 310 309 308 308 308 309 310 310 309 308 308 308 306 303 300 296 293 290 287 284 282 280 279 277 277 275 274 272 270 266 267 268 267 268 265
244 261 281 292 299 306 309 311 309 309 308 308 311 312 312 311 312 311 310 307 304 302 300 298 296 293 290 288 286 283 280 278 276 274 273 270 269 268 266 266 268 266 265
251 269 281 291 299 306 309 310 309 309 309 310 310 311 311 312 311 310 308 306 304 302 301 300 299 298 296 294 291 288 285 281 278 275 273 272 271 269 269 265 265 268 267
258 271 281 291 300 305 304 305 303 303 303 306 307 308 311 312 311 309 307 306 304 304 302 300 299 297 296 295 293 290 285 281 278 275 271 267 265 264 263 261 258 258 262
263 275 282 289 297 299 301 302 302 300 300 302 306 310 311 311 309 307 307 306 305 304 301 299 296 294 293 292 290 288 286 283 279 275 272 269 266 264 263 261 258 255 257
263 271 280 287 294 298 299 298 296 297 301 306 310 311 311 310 308 307 305 304 302 301 300 299 299 298 297 295 292 289 286 284 281 277 274 270 268 267 265 263 260 258 258
265 275 281 288 294 294 295 295 298 302 303 305 308 309 309 306 304 303 304 303 301 302 301 299 298 297 298 297 297 297 293 292 289 284 282 279 275 272 270 267 265 261 260
268 274 281 289 291 293 295 296 298 298 302 306 306 305 303 303 304 305 306 306 306 305 304 303 302 302 304 303 304 300 299 299 298 295 290 285 281 279 277 273 270 268 265
271 277 284 287 291 293 292 294 297 300 302 301 300 301 303 305 307 310 310 309 310 310 310 310 309 309 311 307 303 300 300 301 300 298 295 293 291 287 283 279 276 271 268
271 279 284 288 289 289 295 298 297 296 295 298 302 305 308 310 311 311 311 312 312 314 313 310 309 308 309 308 307 307 307 307 306 300 295 292 289 288 288 286 281 278 275
273 280 283 284 288 294 295 294 294 296 301 305 307 308 310 310 309 310 311 311 313 316 317 315 313 310 306 305 300 293 293 298 299 297 296 295 293 291 290 289 289 285 281
278 277 279 285 290 291 294 294 298 303 304 305 304 305 308 309 309 311 312 314 314 317 317 316 313 312 308 307 303 299 295 292 297 301 298 296 292 291 292 290 289 289 289
272 275 282 285 287 290 293 299 303 301 300 296 298 301 305 308 310 312 315 317 318 318 316 315 313 310 307 303 301 300 296 294 292 288 299 300 296 296 295 291 288 287 286
274 278 276 277 282 292 302 305 302 300 301 300 302 303 308 311 311 314 317 320 321 321 318 317 314 312 310 310 308 305 302 299 292 283 272 277 287 289 291 293 293 289 287
270 267 262 269 283 298 308 309 305 305 304 305 306 310 312 310 311 315 317 319 320 319 318 317 313 310 308 307 305 301 297 296 295 293 286 281 280 280 278 282 284 285 284